| time (UTC) | temp C | wind direction | speed KPH | gust KPH | rain 1hr cm | rain 24hr cm | rain mn cm | humidity % | barometer mb |
| 20260506091536 | 23 | 0.0 | 0.0 | 0.00 | 0.00 | 0.00 | 91 | 1006.7 | |
| 20260506090041 | 23 | 0.0 | 0.0 | 0.00 | 0.00 | 0.00 | 91 | 1006.5 | |
| 20260506084528 | 23 | 0.0 | 0.0 | 0.00 | 0.00 | 0.00 | 90 | 1006.4 | |
| 20260506083035 | 23 | 0.0 | 0.0 | 0.00 | 0.00 | 0.00 | 90 | 1006.3 | |
| 20260506081518 | 23 | 0.0 | 0.0 | 0.00 | 0.00 | 0.00 | 90 | 1006.3 | |
| 20260506073006 | 23 | 0.0 | 0.0 | 0.00 | 0.00 | 0.00 | 90 | 1006.6 | |
| 20260506071502 | 23 | 0.0 | 0.0 | 0.00 | 0.00 | 0.00 | 90 | 1006.8 | |
| 20260506061544 | 23 | 0.0 | 0.0 | 0.00 | 0.00 | 0.00 | 90 | 1006.6 | |
| 20260506044517 | 24 | 0.0 | 0.0 | 0.00 | 0.00 | 0.00 | 88 | 1005.9 | |
| 20260506043016 | 24 | 0.0 | 0.0 | 0.00 | 0.00 | 0.00 | 87 | 1005.8 | |
| 20260506041509 | 24 | 0.0 | 0.0 | 0.00 | 0.00 | 0.00 | 87 | 1005.7 | |
| 20260506040005 | 24 | 0.0 | 0.0 | 0.00 | 0.00 | 0.00 | 86 | 1005.8 | |
| 20260506034602 | 24 | 0.0 | 0.0 | 0.00 | 0.00 | 0.00 | 85 | 1005.6 | |
| 20260506033056 | 24 | 0.0 | 0.0 | 0.00 | 0.00 | 0.00 | 84 | 1005.6 | |
| 20260506031556 | 25 | 0.0 | 0.0 | 0.00 | 0.00 | 0.00 | 83 | 1005.4 | |
| 20260506030047 | 25 | 0.0 | 0.0 | 0.00 | 0.00 | 0.00 | 82 | 1005.3 | |
| 20260506024546 | 25 | 0.0 | 0.0 | 0.00 | 0.00 | 0.00 | 82 | 1005.0 | |
| 20260506023037 | 25 | 0.0 | 0.0 | 0.00 | 0.00 | 0.00 | 81 | 1004.6 | |
| 20260506021549 | 26 | 0.0 | 0.0 | 0.00 | 0.00 | 0.00 | 80 | 1004.6 | |
| 20260506020028 | 26 | 0.0 | 0.0 | 0.00 | 0.00 | 0.00 | 78 | 1004.2 | |
| 20260506014526 | 26 | 0.0 | 0.0 | 0.00 | 0.00 | 0.00 | 77 | 1004.2 | |
| 20260506013019 | 27 | 0.0 | 0.0 | 0.00 | 0.00 | 0.00 | 76 | 1003.9 | |
| 20260506011523 | 27 | 0.0 | 0.0 | 0.00 | 0.00 | 0.00 | 74 | 1003.7 | |
| 20260506010013 | 28 | 0.0 | 0.0 | 0.00 | 0.00 | 0.00 | 71 | 1003.6 | |
| 20260506004508 | 28 | 0.0 | 0.0 | 0.00 | 0.00 | 0.00 | 69 | 1003.5 | |
| 20260506003005 | 29 | 268 | 3.2 | 17.7 | 0.00 | 0.00 | 0.00 | 67 | 1003.3 |
| 20260506001505 | 30 | 28 | 3.2 | 14.5 | 0.00 | 0.00 | 0.00 | 65 | 1003.5 |
| 20260506000004 | 30 | 28 | 3.2 | 14.5 | 0.00 | 0.00 | 0.00 | 65 | 1003.5 |
| 20260505234510 | 30 | 28 | 0.0 | 11.3 | 0.00 | 0.00 | 0.00 | 65 | 1003.5 |
| 20260505233003 | 30 | 28 | 3.2 | 19.3 | 0.00 | 0.00 | 0.00 | 64 | 1003.3 |
| 20260505231503 | 31 | 28 | 0.0 | 19.3 | 0.00 | 0.00 | 0.00 | 63 | 1003.4 |
| 20260505230002 | 31 | 28 | 1.6 | 16.1 | 0.00 | 0.00 | 0.00 | 63 | 1003.3 |
| 20260505224502 | 31 | 28 | 4.8 | 22.5 | 0.00 | 0.00 | 0.00 | 62 | 1003.3 |
| 20260505223001 | 31 | 28 | 6.4 | 20.9 | 0.00 | 0.00 | 0.00 | 62 | 1003.4 |
| 20260505221500 | 32 | 28 | 0.0 | 19.3 | 0.00 | 0.00 | 0.00 | 62 | 1003.3 |
| 20260505214604 | 32 | 28 | 4.8 | 17.7 | 0.00 | 0.00 | 0.00 | 60 | 1003.2 |
| 20260505213056 | 32 | 28 | 6.4 | 17.7 | 0.00 | 0.00 | 0.00 | 60 | 1003.5 |
| 20260505211622 | 32 | 28 | 0.0 | 14.5 | 0.00 | 0.00 | 0.00 | 60 | 1003.8 |
| 20260505210055 | 32 | 28 | 3.2 | 16.1 | 0.00 | 0.00 | 0.00 | 61 | 1003.9 |
| 20260505204552 | 32 | 28 | 1.6 | 22.5 | 0.00 | 0.00 | 0.00 | 60 | 1004.0 |
| 20260505203113 | 32 | 28 | 3.2 | 17.7 | 0.00 | 0.00 | 0.00 | 59 | 1004.2 |
| 20260505201547 | 32 | 28 | 0.0 | 17.7 | 0.00 | 0.00 | 0.00 | 60 | 1004.3 |
| 20260505200046 | 32 | 28 | 6.4 | 20.9 | 0.00 | 0.00 | 0.00 | 61 | 1004.1 |
| 20260505194544 | 31 | 28 | 0.0 | 12.9 | 0.00 | 0.00 | 0.00 | 63 | 1004.4 |
| 20260505193041 | 31 | 28 | 0.0 | 12.9 | 0.00 | 0.00 | 0.00 | 62 | 1004.5 |
| 20260505191545 | 31 | 28 | 6.4 | 17.7 | 0.00 | 0.00 | 0.00 | 63 | 1004.7 |
| 20260505190042 | 31 | 28 | 6.4 | 20.9 | 0.00 | 0.00 | 0.00 | 65 | 1005.0 |
| 20260505184545 | 30 | 28 | 1.6 | 12.9 | 0.00 | 0.00 | 0.00 | 67 | 1005.3 |
| 20260505183040 | 30 | 28 | 4.8 | 19.3 | 0.00 | 0.00 | 0.00 | 68 | 1005.6 |
| 20260505181530 | 30 | 28 | 6.4 | 20.9 | 0.00 | 0.00 | 0.00 | 67 | 1005.7 |
| 20260505180029 | 29 | 28 | 9.7 | 25.7 | 0.00 | 0.00 | 0.00 | 67 | 1006.0 |
| 20260505174526 | 29 | 28 | 0.0 | 24.1 | 0.00 | 0.00 | 0.00 | 68 | 1006.1 |
| 20260505173024 | 29 | 28 | 3.2 | 20.9 | 0.00 | 0.00 | 0.00 | 68 | 1006.2 |
| 20260505171522 | 28 | 28 | 4.8 | 19.3 | 0.00 | 0.00 | 0.00 | 69 | 1006.3 |
| 20260505170032 | 28 | 28 | 4.8 | 30.6 | 0.00 | 0.00 | 0.00 | 70 | 1006.2 |
| 20260505164518 | 28 | 28 | 12.9 | 25.7 | 0.00 | 0.00 | 0.00 | 71 | 1006.2 |
| 20260505163018 | 27 | 28 | 4.8 | 22.5 | 0.00 | 0.00 | 0.00 | 71 | 1006.3 |
| 20260505161512 | 27 | 28 | 3.2 | 22.5 | 0.00 | 0.00 | 0.00 | 74 | 1006.5 |
| 20260505153004 | 25 | 28 | 6.4 | 22.5 | 0.00 | 0.00 | 0.00 | 76 | 1006.6 |
| 20260505151501 | 25 | 28 | 8.0 | 32.2 | 0.00 | 0.00 | 0.00 | 78 | 1006.6 |
| 20260505124539 | 22 | 0.0 | 0.0 | 0.00 | 0.00 | 0.00 | 88 | 1005.6 | |
| 20260505123035 | 22 | 0.0 | 0.0 | 0.00 | 0.00 | 0.00 | 88 | 1005.3 | |
| 20260505121537 | 21 | 0.0 | 0.0 | 0.00 | 0.00 | 0.00 | 88 | 1005.2 | |
| 20260505120028 | 21 | 0.0 | 0.0 | 0.00 | 0.00 | 0.00 | 88 | 1005.0 | |
| 20260505114522 | 21 | 0.0 | 0.0 | 0.00 | 0.03 | 0.00 | 88 | 1004.8 | |
| 20260505113031 | 21 | 0.0 | 0.0 | 0.00 | 0.03 | 0.00 | 88 | 1004.9 | |
| 20260505111525 | 21 | 0.0 | 0.0 | 0.00 | 0.03 | 0.00 | 88 | 1004.6 | |
| 20260505101558 | 21 | 0.0 | 0.0 | 0.00 | 0.03 | 0.00 | 89 | 1005.1 | |
| 20260505100055 | 21 | 0.0 | 0.0 | 0.00 | 0.03 | 0.00 | 89 | 1004.8 | |
| 20260505094558 | 21 | 0.0 | 0.0 | 0.00 | 0.03 | 0.00 | 89 | 1005.2 | |
| 20260505093051 | 21 | 0.0 | 0.0 | 0.00 | 0.03 | 0.00 | 89 | 1005.2 |